When you browse on this site, cookies collect data to enhance your experience and personalize the content and advertising you see.
Visit our Privacy Policy to learn more. By continuing to use the site, you agree to this use of cookies and data.
  • In Sweden
  • List of Countries
  • For 7 days
  • Water Temperature
  • Weather Map
  • Weather Widgets
  • user-avatar
    Login

    Hourly Weather Dobrovody

    Today, 25 February, Tuesday

    Time Temperature Precipitation Wind Pressure Humidity
    00:00 0°C° 0 mm 3 mps 730 mmHg 86%
    01:00 0°C° 0 mm 3 mps 730 mmHg 86%
    02:00 +1°C° 0 mm 2 mps 729 mmHg 86%
    03:00 +1°C° 0 mm 2 mps 728 mmHg 84%
    04:00 +1°C° 0 mm 2 mps 728 mmHg 82%
    05:00 +1°C° 0 mm 2 mps 727 mmHg 79%
    06:00 0°C° 0.4 mm 3 mps 726 mmHg 84%
    07:00 0°C° 0.4 mm 3 mps 726 mmHg 88%
    08:00 -1°C° 0 mm 4 mps 726 mmHg 91%
    09:00 0°C° 0.3 mm 4 mps 725 mmHg 86%
    10:00 +2°C° 0.3 mm 3 mps 725 mmHg 81%
    11:00 +2°C° 0.3 mm 3 mps 725 mmHg 76%
    12:00 +3°C° 0 mm 3 mps 725 mmHg 73%
    13:00 +5°C° 0 mm 2 mps 724 mmHg 70%
    14:00 +6°C° 0 mm 2 mps 724 mmHg 68%
    15:00 +6°C° 0 mm 2 mps 723 mmHg 69%
    16:00 +7°C° 0 mm 1 mps 723 mmHg 70%
    17:00 +7°C° 0 mm 1 mps 722 mmHg 71%
    18:00 +6°C° 0 mm 2 mps 722 mmHg 72%
    19:00 +5°C° 0 mm 2 mps 722 mmHg 73%
    20:00 +5°C° 0 mm 2 mps 722 mmHg 74%
    21:00 +5°C° 0 mm 2 mps 721 mmHg 75%
    22:00 +5°C° 0 mm 2 mps 721 mmHg 75%
    23:00 +3°C° 0 mm 3 mps 720 mmHg 76%

    Tomorrow, 26 February, Wednesday

    Time Temperature Precipitation Wind Pressure Humidity
    00:00 +3°C° 0 mm 3 mps 720 mmHg 77%
    01:00 +4°C° 0 mm 2 mps 720 mmHg 78%
    02:00 +4°C° 0 mm 2 mps 720 mmHg 79%
    03:00 +4°C° 0 mm 2 mps 719 mmHg 80%
    04:00 +4°C° 0 mm 2 mps 718 mmHg 81%
    05:00 +4°C° 0 mm 2 mps 718 mmHg 82%
    06:00 +4°C° 0 mm 2 mps 718 mmHg 83%
    07:00 +4°C° 0 mm 2 mps 718 mmHg 84%
    08:00 +5°C° 0 mm 2 mps 717 mmHg 85%
    09:00 +5°C° 0.1 mm 2 mps 717 mmHg 85%
    10:00 +6°C° 0.1 mm 2 mps 717 mmHg 85%
    11:00 +7°C° 0.1 mm 3 mps 716 mmHg 84%
    12:00 +7°C° 0.3 mm 3 mps 716 mmHg 82%
    13:00 +8°C° 0.3 mm 3 mps 715 mmHg 79%
    14:00 +9°C° 0.3 mm 3 mps 715 mmHg 76%
    15:00 +9°C° 0 mm 3 mps 715 mmHg 76%
    16:00 +7°C° 0 mm 4 mps 715 mmHg 76%
    17:00 +7°C° 0 mm 4 mps 714 mmHg 76%
    18:00 +6°C° 0 mm 4 mps 714 mmHg 80%
    19:00 +5°C° 0 mm 3 mps 715 mmHg 83%
    20:00 +4°C° 0 mm 3 mps 715 mmHg 87%
    21:00 +4°C° 0.2 mm 3 mps 715 mmHg 86%
    22:00 +5°C° 0.2 mm 2 mps 715 mmHg 86%
    23:00 +4°C° 0.2 mm 2 mps 715 mmHg 86%

    Day after tomorrow, 27 February, Thursday

    Time Temperature Precipitation Wind Pressure Humidity
    00:00 +3°C° 0.1 mm 3 mps 715 mmHg 88%
    01:00 +3°C° 0.1 mm 3 mps 716 mmHg 90%
    02:00 +1°C° 0.1 mm 4 mps 716 mmHg 92%
    03:00 +1°C° 0.2 mm 4 mps 716 mmHg 93%
    04:00 +1°C° 0.2 mm 5 mps 716 mmHg 94%
    05:00 0°C° 0.2 mm 5 mps 716 mmHg 95%
    06:00 0°C° 0.1 mm 4 mps 717 mmHg 91%
    07:00 0°C° 0.1 mm 4 mps 718 mmHg 88%
    08:00 0°C° 0.1 mm 4 mps 718 mmHg 85%
    09:00 +1°C° 0 mm 4 mps 719 mmHg 80%
    10:00 +1°C° 0 mm 5 mps 719 mmHg 74%
    11:00 +2°C° 0 mm 6 mps 720 mmHg 69%
    12:00 +2°C° 0.1 mm 6 mps 720 mmHg 68%
    13:00 +2°C° 0.1 mm 7 mps 720 mmHg 67%
    14:00 +2°C° 0.1 mm 7 mps 721 mmHg 66%
    15:00 +2°C° 0 mm 7 mps 721 mmHg 65%
    16:00 +1°C° 0 mm 6 mps 721 mmHg 63%
    17:00 +1°C° 0 mm 6 mps 721 mmHg 62%
    18:00 0°C° 0 mm 5 mps 721 mmHg 66%
    19:00 0°C° 0 mm 4 mps 721 mmHg 70%
    20:00 -1°C° 0 mm 4 mps 721 mmHg 73%
    21:00 -2°C° 0 mm 4 mps 721 mmHg 75%
    22:00 -1°C° 0 mm 3 mps 721 mmHg 76%
    23:00 -1°C° 0 mm 3 mps 721 mmHg 78%

    28 February, Friday

    Time Temperature Precipitation Wind Pressure Humidity
    00:00 -1°C° 0 mm 3 mps 721 mmHg 77%
    01:00 -2°C° 0 mm 2 mps 721 mmHg 76%
    02:00 -2°C° 0 mm 2 mps 721 mmHg 75%
    03:00 -1°C° 0 mm 2 mps 721 mmHg 73%
    04:00 -1°C° 0 mm 2 mps 721 mmHg 72%
    05:00 -1°C° 0 mm 3 mps 720 mmHg 71%
    06:00 -1°C° 0 mm 3 mps 720 mmHg 70%
    07:00 -2°C° 0 mm 4 mps 720 mmHg 70%
    08:00 -1°C° 0 mm 4 mps 720 mmHg 69%
    09:00 0°C° 0 mm 5 mps 719 mmHg 65%
    10:00 +1°C° 0 mm 6 mps 719 mmHg 60%
    11:00 +2°C° 0 mm 6 mps 719 mmHg 56%
    12:00 +2°C° 0 mm 5 mps 719 mmHg 57%
    13:00 +4°C° 0 mm 4 mps 719 mmHg 58%
    14:00 +4°C° 0 mm 3 mps 719 mmHg 58%
    15:00 +3°C° 0.3 mm 3 mps 719 mmHg 65%
    16:00 +4°C° 0.3 mm 2 mps 719 mmHg 72%
    17:00 +3°C° 0.3 mm 2 mps 719 mmHg 79%
    18:00 +1°C° 0.5 mm 3 mps 720 mmHg 85%
    19:00 -1°C° 0.5 mm 4 mps 721 mmHg 90%
    20:00 -1°C° 0.5 mm 5 mps 721 mmHg 96%
    21:00 -2°C° 0.3 mm 6 mps 722 mmHg 96%
    22:00 -3°C° 0.3 mm 7 mps 723 mmHg 95%
    23:00 -4°C° 0.3 mm 8 mps 724 mmHg 95%

    29 February, Saturday

    Time Temperature Precipitation Wind Pressure Humidity
    00:00 -4°C° 0.4 mm 8 mps 724 mmHg 92%
    01:00 -4°C° 0.4 mm 8 mps 725 mmHg 89%
    02:00 -4°C° 0.4 mm 8 mps 726 mmHg 86%
    03:00 -4°C° 0 mm 8 mps 726 mmHg 86%
    04:00 -3°C° 0 mm 7 mps 727 mmHg 86%
    05:00 -3°C° 0 mm 7 mps 727 mmHg 86%
    06:00 -3°C° 0 mm 7 mps 728 mmHg 87%
    07:00 -3°C° 0 mm 6 mps 728 mmHg 88%
    08:00 -4°C° 0 mm 6 mps 729 mmHg 89%
    09:00 -3°C° 0 mm 6 mps 729 mmHg 85%
    10:00 -3°C° 0 mm 6 mps 729 mmHg 81%
    11:00 -2°C° 0 mm 6 mps 729 mmHg 77%
    12:00 -2°C° 0 mm 6 mps 729 mmHg 75%
    13:00 -1°C° 0 mm 6 mps 729 mmHg 73%
    14:00 0°C° 0 mm 5 mps 729 mmHg 71%
    15:00 0°C° 0 mm 4 mps 729 mmHg 72%
    16:00 +1°C° 0 mm 3 mps 729 mmHg 72%
    17:00 +2°C° 0 mm 2 mps 729 mmHg 72%
    18:00 +2°C° 0 mm 2 mps 729 mmHg 74%
    19:00 +2°C° 0 mm 1 mps 729 mmHg 77%
    20:00 +1°C° 0 mm 1 mps 730 mmHg 79%
    21:00 +1°C° 0 mm 1 mps 730 mmHg 79%
    22:00 -1°C° 0 mm 2 mps 730 mmHg 79%
    23:00 -1°C° 0 mm 2 mps 730 mmHg 80%

    1 March, Sunday

    Time Temperature Precipitation Wind Pressure Humidity
    00:00 -1°C° 0 mm 3 mps 729 mmHg 79%
    01:00 -1°C° 0 mm 3 mps 729 mmHg 78%
    02:00 -1°C° 0 mm 3 mps 729 mmHg 76%
    03:00 -1°C° 0 mm 3 mps 729 mmHg 75%
    04:00 -2°C° 0 mm 4 mps 728 mmHg 73%
    05:00 -2°C° 0 mm 4 mps 728 mmHg 71%
    06:00 -2°C° 0 mm 4 mps 728 mmHg 70%
    07:00 -2°C° 0 mm 4 mps 728 mmHg 69%
    08:00 -2°C° 0 mm 5 mps 728 mmHg 68%
    09:00 0°C° 0 mm 5 mps 728 mmHg 65%
    10:00 +1°C° 0 mm 5 mps 728 mmHg 61%
    11:00 +2°C° 0 mm 6 mps 728 mmHg 58%
    12:00 +3°C° 0 mm 6 mps 727 mmHg 58%
    13:00 +4°C° 0 mm 6 mps 727 mmHg 58%
    14:00 +5°C° 0 mm 5 mps 727 mmHg 58%
    15:00 +5°C° 0.2 mm 5 mps 726 mmHg 64%
    16:00 +5°C° 0.2 mm 5 mps 726 mmHg 71%
    17:00 +4°C° 0.2 mm 4 mps 726 mmHg 77%
    18:00 +4°C° 0.1 mm 4 mps 726 mmHg 81%
    19:00 +4°C° 0.1 mm 3 mps 726 mmHg 84%
    20:00 +3°C° 0.1 mm 3 mps 726 mmHg 88%
    21:00 +4°C° 0 mm 2 mps 726 mmHg 88%
    22:00 +4°C° 0 mm 2 mps 726 mmHg 88%
    23:00 +4°C° 0 mm 1 mps 726 mmHg 88%
    Show more